Flag for Botswana Weather past 2 weeks in Molepolole, Botswana

Now
81 °F

Partly sunny.


Feels Like: 81 °F
Forecast: 64 / 77 °F
Wind: 9 mph from Northeast

Location: Seretse Khama International Airport

Current Time: Mar 30, 2015 at 5:06:57 PM

Latest Report: Mar 30, 2015 at 3:00 PM


Visibility: N/A

Pressure: 30.07 "Hg

Humidity: 45%

Dew point: 57 °F

Location of MolepololeLocation

Historic Weather in Molepolole — Graph

°F

Molepolole temperature yesterday

Maximum temperature yesterday: 84 °F (at 4:00 PM)
Minimum temperature yesterday: 63 °F (at 3:00 AM)
Average temperature yesterday: 72 °F

Past Weeks' High & Low Weather Summary

 TemperatureHumidityPressure
High97 °F (Mar 17, 2:00 PM)94% (Mar 26, 7:00 AM)30.21 "Hg (Mar 26, 7:00 AM)
Low63 °F (Mar 17, 5:00 AM)10% (Mar 17, 2:00 PM)29.92 "Hg (Mar 17, 4:00 PM)
Average77 °F54%30.08 "Hg
* Reported Mar 15 3:00 PM — Mar 30 3:00 PM, Molepolole, Weather by CustomWeather, © 2015

Note: Actual official high and low records may vary slightly from our data, if they occured in-between our weather recording intervals... More about our weather records

Advertising

Molepolole weather history for previous 24 hours

 ConditionsComfort  
Time TempWeatherWind HumidityBarometerVisibility
3:00 PM
Mon, Mar 30
81 °FPartly sunny.9 mph45%30.07 "HgN/A
2:00 PM79 °FScattered clouds.10 mph48%30.07 "HgN/A
1:00 PM77 °FPartly sunny.7 mph51%30.09 "HgN/A
12:00 PM75 °FPartly sunny.8 mph57%30.12 "HgN/A
11:00 AM73 °FPartly sunny.10 mph61%30.15 "HgN/A
10:00 AM72 °FOvercast.10 mph65%30.15 "HgN/A
9:00 AM70 °FPartly sunny.12 mph73%30.15 "HgN/A
8:00 AM68 °FPartly sunny.8 mph78%30.12 "HgN/A
7:00 AM66 °FOvercast.9 mph83%30.12 "HgN/A
6:00 AM64 °FPartly sunny.6 mph94%30.09 "HgN/A
5:00 AM64 °FClear.6 mph83%30.09 "Hg10 mi
4:00 AM66 °FPassing clouds.7 mph78%30.09 "HgN/A
3:00 AM66 °FPassing clouds.7 mph78%30.07 "HgN/A
2:00 AM68 °FClear.6 mph73%30.07 "Hg10 mi
1:00 AM68 °FPassing clouds.6 mph69%30.07 "HgN/A
12:00 AM68 °FClear.8 mph69%30.07 "Hg10 mi
11:00 PM
Sun, Mar 29
68 °FClear.9 mph60%30.07 "Hg10 mi
10:00 PM70 °FClear.3 mph60%30.07 "Hg10 mi
9:00 PM79 °FClear.1 mph51%30.04 "Hg10 mi
8:00 PM73 °FClear.3 mph57%30.01 "HgN/A
7:00 PM77 °FPassing clouds.2 mph44%30.01 "HgN/A
6:00 PM81 °FPassing clouds.3 mph37%29.98 "HgN/A
5:00 PM82 °FScattered clouds.7 mph32%29.98 "HgN/A
Weather by CustomWeather, © 2015

See weather overviewHow to use our weather pages